STARLINK-34312, 64711

Orbit data source: Space-Track

STARLINK-34312, 64711 is a payload satellite owned by SpaceX/Seattle (US) in LEO that was launched on Sat, 28 Jun 2025 UTC via an FALCON 9 launch vehicle from the Air Force Western Test Range (AFWTR). Payload-class satellites include a variety of spacecraft equipped with specific instruments for various scientific and technological missions. These include communications satellites like Starlink; space stations such as the ISS; scientific satellites like the Hubble; Earth observation satellites from companies like Planet Labs, Umbra, and HawkEye 360; GPS; miniature CubeSats for education and research; and military/defense satellites.

Loading next visibility...
Identifier
64711, 2025-142R
Orbit
LEO
Country
Flag of USUS
Related business
Manufacturer
SpaceX/Seattle
Mission
Operational Commercial Communications
Bus & Motor
STARLINK V2MO, Unknown motor
Mass
575 kg wet, ~530 kg dry
Launch date (UTC)
2025-06-28 (1 year ago)
Launch vehicle
FALCON 9
Launch site
Air Force Western Test Range (AFWTR)
Object type
Payload
Rocket body
Debris
Shape & HBR
Box + 2 Pan, 17.7 m
Radar Cross Section
36.964 m², Large (>1 m²)

Expand to show TLE details & history
Last TLE update: 7 hours ago

TLE from 7 hours ago
0 STARLINK-34312
1 64711U 25142R   26207.63351075  .00005482  00000-0  46689-3 0  9995
2 64711  70.0032 324.1054 0002883 270.8477  89.2351 14.98331910 60461
Epoch: 2026-07-26T15:12Z
TLE epoch observation values (Epoch: 2026-07-26T15:12:15.328Z)
Latitude
-0.00011°
Longitude
151.71286°
Altitude
574.448 km
Speed
7.574 km/s
True Right ascension
21h 36m 25s
True Declination
0° 00' 00"
Sunlit
Object was in full shadow at epoch
Visualization orbit readout
Latitude
Unknown
Longitude
Unknown
Altitude
Unknown
Speed
Unknown
Apparent Right ascension
Unknown
Apparent Declination
Unknown
Sunlit
N/A
Visualization observer readout
Local Sidereal Time
11:05:16
Azimuth
Unknown
Elevation
Unknown
Doppler factor
Unknown
Orbital elements
Apogee altitude
572.001 km
Perigee altitude
567.995 km
Semi-major axis
6,948.135 km
Eccentricity
0.00029
Inclination
70.0032°
RAAN
324.1054°
Arg. of periapsis
270.8477°
True anomaly
89.26813°
Mean anomaly
89.2351°
Eccentric anomaly
89.25162°
Mean motion
3.74749 °/min
Orbital period
96.06 mins
BSTAR
0.00046689
Loading maneuver chart data...
Computing Atmospheric mass density...
Loading historical data...
Loading historical data...
Loading historical data...
Loading historical data...
Loading historical data...
Loading historical data...
Loading historical data...

Documentation

Showing up to 5 results
|